Jackson, MI

12:12 PM EST on February 14, 2016 (GMT -0500)
Jackson County-Reynolds

Weather History for KJXN - June, 2012

Change the Weather History Date:

Thursday, June 21, 2012

  Actual Average Record
Temperature  
Mean Temperature 75 °F 69 °F  
Max Temperature 88 °F 80 °F 97 °F (1988)
Min Temperature 62 °F 58 °F 36 °F (1992)
Degree Days  
Heating Degree Days 0 1  
Month to date heating degree days 47  
Since 1 June heating degree days 47  
Since 1 July heating degree days 6649  
Cooling Degree Days 10 5  
Month to date cooling degree days 74  
Year to date cooling degree days 111  
Since 1 June cooling degree days 74  
Growing Degree Days 24 (Base 50)    
Moisture  
Dew Point 65 °F    
Average Humidity 71    
Maximum Humidity 93    
Minimum Humidity 48    
Precipitation  
Precipitation 0.56 in 0.11 in 1.84 in (2006)
Month to date precipitation 2.24 2.29  
Year to date precipitation 12.89  
Sea Level Pressure  
Sea Level Pressure 29.91 in    
Wind  
Wind Speed 7 mph (West)    
Max Wind Speed 23 mph    
Max Gust Speed 32 mph    
Visibility 7 miles    
Events Fog , Rain , Thunderstorm    
T = Trace of Precipitation, MM = Missing Value Source: NWS Daily Summary

Daily Weather History Graph

Daily Weather History Graph

Search for Another Location

Airport or City:

Trip Planner

Search our weather history database for the weather conditions in past years. The results will help you decide how hot, cold, wet, or windy it might be!

Date:

Astronomy

Jun. 21, 2012 Rise Set
Actual Time 6:01 AM EDT 9:17 PM EDT
Civil Twilight 5:26 AM EDT 9:52 PM EDT
Nautical Twilight 4:41 AM EDT 10:37 PM EDT
Astronomical Twilight 3:47 AM EDT 11:32 PM EDT
Moon 8:01 AM EDT (6/21) 10:37 PM EDT (6/21)
Length of Visible Light 16h 25m
Length of Day
15h 16m
Waxing Crescent, 4% of the Moon is Illuminated
Jun 21
Waxing Crescent
Jun 26
First Quarter
Jul 3
Full
Jul 10
Last Quarter
Jul 19
New

Hourly Weather History & Observations

Time (EDT) Temp. Heat Index Dew Point Humidity Pressure Visibility Wind Dir Wind Speed Gust Speed Precip Events Conditions
12:56 AM 73.0 °F - 60.1 °F 64% 29.97 in 10.0 mi Calm Calm - N/A   Clear
1:56 AM 73.9 °F - 59.0 °F 59% 29.97 in 10.0 mi SSW 3.5 mph - N/A   Clear
2:56 AM 73.9 °F - 60.1 °F 62% 29.96 in 10.0 mi South 5.8 mph - N/A   Clear
3:56 AM 73.9 °F - 60.1 °F 62% 29.94 in 10.0 mi SSW 6.9 mph - N/A   Clear
4:56 AM 75.2 °F - 60.8 °F 61% 29.95 in 10.0 mi SSW 9.2 mph - N/A   Clear
5:56 AM 75.0 °F - 60.1 °F 60% 29.93 in 10.0 mi SW 9.2 mph - N/A   Clear
6:56 AM 75.0 °F - 61.0 °F 62% 29.92 in 10.0 mi SSW 11.5 mph - N/A   Scattered Clouds
7:56 AM 77.0 °F - 62.1 °F 60% 29.92 in 10.0 mi SW 10.4 mph 19.6 mph N/A   Clear
8:56 AM 80.1 °F 81.2 °F 62.1 °F 54% 29.91 in 10.0 mi WSW 11.5 mph - N/A   Clear
9:56 AM 82.0 °F 83.1 °F 63.0 °F 52% 29.90 in 10.0 mi WSW 17.3 mph 24.2 mph N/A   Clear
10:56 AM 84.9 °F 86.6 °F 64.9 °F 51% 29.88 in 10.0 mi WSW 12.7 mph - N/A   Clear
11:56 AM 86.0 °F 87.6 °F 64.9 °F 49% 29.87 in 10.0 mi WSW 12.7 mph 19.6 mph N/A   Partly Cloudy
12:56 PM 84.9 °F 86.6 °F 64.9 °F 51% 29.88 in 10.0 mi West 11.5 mph 18.4 mph N/A   Scattered Clouds
1:56 PM 87.1 °F 90.6 °F 68.0 °F 53% 29.87 in 10.0 mi WNW 8.1 mph 18.4 mph N/A   Scattered Clouds
2:56 PM 84.9 °F 87.1 °F 66.0 °F 53% 29.85 in 10.0 mi West 10.4 mph - N/A   Scattered Clouds
3:47 PM 75.2 °F - 66.2 °F 73% 29.90 in 1.0 mi WNW 23.0 mph 32.2 mph 0.14 in Rain Heavy Rain
3:52 PM 71.6 °F - 69.8 °F 94% 29.90 in 0.2 mi NNW 12.7 mph 32.2 mph 0.33 in Fog , Rain Heavy Rain
3:56 PM 72.0 °F - 69.1 °F 91% 29.89 in 0.2 mi WNW 13.8 mph 32.2 mph 0.37 in Fog , Rain Heavy Rain
3:59 PM 71.6 °F - 69.8 °F 94% 29.91 in 0.5 mi WNW 10.4 mph 24.2 mph 0.06 in Fog , Rain Heavy Rain
4:03 PM 71.6 °F - 69.8 °F 94% 29.90 in 1.0 mi NW 8.1 mph 21.9 mph 0.09 in Rain , Thunderstorm Thunderstorms and Rain
4:05 PM 71.6 °F - 69.8 °F 94% 29.89 in 0.8 mi NW 8.1 mph 21.9 mph 0.11 in Rain , Thunderstorm Thunderstorms and Rain
4:13 PM 71.6 °F - 69.8 °F 94% 29.89 in 1.5 mi NW 5.8 mph 17.3 mph 0.14 in Rain , Thunderstorm Thunderstorms and Rain
4:17 PM 71.6 °F - 69.8 °F 94% 29.90 in 3.0 mi WNW 8.1 mph 17.3 mph 0.14 in Rain , Thunderstorm Thunderstorms and Rain
4:26 PM 73.4 °F - 71.6 °F 94% 29.90 in 10.0 mi WNW 10.4 mph 16.1 mph 0.14 in Rain Light Rain
4:56 PM 73.0 °F - 68.0 °F 84% 29.88 in 8.0 mi NW 9.2 mph 19.6 mph 0.14 in Rain Light Rain
5:56 PM 72.0 °F - 68.0 °F 87% 29.87 in 10.0 mi NW 5.8 mph 16.1 mph 0.01 in   Mostly Cloudy
6:56 PM 69.1 °F - 64.9 °F 87% 29.88 in 10.0 mi WNW 5.8 mph - 0.03 in   Overcast
7:56 PM 68.0 °F - 63.0 °F 84% 29.89 in 10.0 mi Variable 3.5 mph - N/A   Unknown
8:56 PM 68.0 °F - 64.0 °F 87% 29.91 in 10.0 mi WNW 4.6 mph - N/A   Mostly Cloudy
9:56 PM 66.0 °F - 63.0 °F 90% 29.92 in 10.0 mi Calm Calm - N/A   Clear
10:56 PM 64.0 °F - 62.1 °F 93% 29.93 in 10.0 mi Calm Calm - N/A   Clear
11:39 PM 62.6 °F - 60.8 °F 94% 29.96 in 1.8 mi Calm Calm - 0.01 in   Clear
11:56 PM 62.6 °F - 60.8 °F 94% 29.96 in 0.8 mi Calm Calm - N/A   Clear